| time (UTC) | temp C | wind direction | speed KPH | gust KPH | rain 1hr cm | rain 24hr cm | rain mn cm | humidity % | barometer mb |
| 20260906061521 | 28 | 122 | 0.0 | 3.2 | 0.00 | 0.00 | 0.00 | 73 | 1014.1 |
| 20260906060021 | 28 | 140 | 0.0 | 6.4 | 0.00 | 0.00 | 0.00 | 72 | 1014.3 |
| 20260906054514 | 28 | 276 | 0.0 | 4.8 | 0.00 | 0.00 | 0.00 | 72 | 1014.1 |
| 20260906053006 | 28 | 131 | 0.0 | 4.8 | 0.00 | 0.00 | 0.00 | 72 | 1014.0 |
| 20260906051510 | 28 | 163 | 0.0 | 3.2 | 0.00 | 0.00 | 0.00 | 72 | 1014.1 |
| 20260906050021 | 28 | 171 | 0.0 | 3.2 | 0.00 | 0.00 | 0.00 | 72 | 1014.3 |
| 20260906044523 | 28 | 183 | 0.0 | 3.2 | 0.00 | 0.00 | 0.00 | 71 | 1014.3 |
| 20260906043018 | 28 | 128 | 0.0 | 3.2 | 0.00 | 0.00 | 0.00 | 71 | 1014.4 |
| 20260906041509 | 28 | 153 | 0.0 | 4.8 | 0.00 | 0.00 | 0.00 | 69 | 1014.1 |
| 20260906040019 | 28 | 198 | 1.6 | 11.3 | 0.00 | 0.00 | 0.00 | 68 | 1014.1 |
| 20260906034520 | 28 | 120 | 0.0 | 9.7 | 0.00 | 0.00 | 0.00 | 67 | 1014.2 |
| 20260906033027 | 29 | 155 | 1.6 | 9.7 | 0.00 | 0.00 | 0.00 | 65 | 1014.1 |
| 20260906031508 | 29 | 134 | 1.6 | 6.4 | 0.00 | 0.00 | 0.00 | 64 | 1013.8 |
| 20260906030013 | 30 | 183 | 0.0 | 9.7 | 0.00 | 0.00 | 0.00 | 63 | 1013.6 |
| 20260906024533 | 30 | 148 | 1.6 | 9.7 | 0.00 | 0.00 | 0.00 | 61 | 1013.4 |
| 20260906023025 | 30 | 150 | 0.0 | 8.0 | 0.00 | 0.00 | 0.00 | 60 | 1012.9 |
| 20260906021538 | 31 | 43 | 1.6 | 9.7 | 0.00 | 0.00 | 0.00 | 58 | 1012.4 |
| 20260906020013 | 31 | 40 | 1.6 | 9.7 | 0.00 | 0.00 | 0.00 | 57 | 1012.0 |
| 20260906014541 | 31 | 136 | 1.6 | 8.0 | 0.00 | 0.00 | 0.00 | 57 | 1011.9 |
| 20260906013033 | 31 | 113 | 1.6 | 12.9 | 0.00 | 0.00 | 0.00 | 55 | 1011.8 |
| 20260906011530 | 32 | 72 | 1.6 | 8.0 | 0.00 | 0.00 | 0.00 | 54 | 1011.8 |
| 20260906010030 | 32 | 91 | 3.2 | 14.5 | 0.00 | 0.00 | 0.00 | 53 | 1011.6 |
| 20260906004504 | 32 | 105 | 0.0 | 9.7 | 0.00 | 0.00 | 0.00 | 52 | 1011.6 |
| 20260906003008 | 33 | 134 | 1.6 | 9.7 | 0.00 | 0.00 | 0.00 | 51 | 1011.5 |
| 20260906001506 | 33 | 196 | 0.0 | 4.8 | 0.00 | 0.00 | 0.00 | 48 | 1011.4 |
| 20260906000004 | 34 | 101 | 1.6 | 9.7 | 0.00 | 0.00 | 0.00 | 47 | 1011.4 |
| 20260905234503 | 34 | 138 | 0.0 | 6.4 | 0.00 | 0.00 | 0.00 | 44 | 1011.2 |
| 20260905233003 | 35 | 132 | 0.0 | 3.2 | 0.00 | 0.00 | 0.00 | 43 | 1011.2 |
| 20260905231504 | 35 | 146 | 0.0 | 3.2 | 0.00 | 0.00 | 0.00 | 41 | 1011.2 |
| 20260905230005 | 36 | 68 | 0.0 | 3.2 | 0.00 | 0.00 | 0.00 | 40 | 1011.2 |
| 20260905224510 | 36 | 60 | 0.0 | 3.2 | 0.00 | 0.00 | 0.00 | 39 | 1011.2 |
| 20260905223004 | 35 | 66 | 0.0 | 3.2 | 0.00 | 0.00 | 0.00 | 41 | 1011.2 |
| 20260905221503 | 33 | 63 | 0.0 | 3.2 | 0.00 | 0.00 | 0.00 | 44 | 1011.4 |
| 20260905220003 | 35 | 315 | 0.0 | 3.2 | 0.00 | 0.00 | 0.00 | 41 | 1011.5 |
| 20260905214505 | 37 | 111 | 1.6 | 4.8 | 0.00 | 0.00 | 0.00 | 37 | 1011.5 |
| 20260905213007 | 37 | 102 | 1.6 | 3.2 | 0.00 | 0.00 | 0.00 | 37 | 1011.5 |
| 20260905211504 | 37 | 246 | 3.2 | 4.8 | 0.00 | 0.00 | 0.00 | 38 | 1011.7 |
| 20260905210007 | 37 | 317 | 0.0 | 6.4 | 0.00 | 0.00 | 0.00 | 37 | 1011.9 |
| 20260905204503 | 37 | 155 | 0.0 | 8.0 | 0.00 | 0.00 | 0.00 | 36 | 1012.2 |
| 20260905203008 | 37 | 46 | 1.6 | 6.4 | 0.00 | 0.00 | 0.00 | 38 | 1012.5 |
| 20260905201508 | 37 | 236 | 3.2 | 9.7 | 0.00 | 0.00 | 0.00 | 37 | 1012.6 |
| 20260905200008 | 36 | 103 | 0.0 | 4.8 | 0.00 | 0.00 | 0.00 | 38 | 1012.9 |
| 20260905194509 | 36 | 134 | 1.6 | 9.7 | 0.00 | 0.00 | 0.00 | 40 | 1013.1 |
| 20260905193007 | 37 | 230 | 1.6 | 4.8 | 0.00 | 0.00 | 0.00 | 38 | 1013.4 |
| 20260905191509 | 36 | 109 | 1.6 | 8.0 | 0.00 | 0.00 | 0.00 | 38 | 1013.6 |
| 20260905190009 | 36 | 144 | 0.0 | 9.7 | 0.00 | 0.00 | 0.00 | 40 | 1013.9 |
| 20260905184519 | 36 | 227 | 0.0 | 12.9 | 0.00 | 0.00 | 0.00 | 40 | 1014.3 |
| 20260905183010 | 36 | 222 | 0.0 | 11.3 | 0.00 | 0.00 | 0.00 | 41 | 1014.4 |
| 20260905181509 | 36 | 149 | 1.6 | 8.0 | 0.00 | 0.00 | 0.00 | 45 | 1014.7 |
| 20260905180016 | 36 | 80 | 1.6 | 4.8 | 0.00 | 0.00 | 0.00 | 46 | 1015.0 |
| 20260905174511 | 35 | 200 | 1.6 | 6.4 | 0.00 | 0.00 | 0.00 | 46 | 1015.3 |
| 20260905173011 | 35 | 156 | 0.0 | 9.7 | 0.00 | 0.00 | 0.00 | 48 | 1015.5 |
| 20260905171515 | 33 | 86 | 0.0 | 6.4 | 0.00 | 0.00 | 0.00 | 51 | 1015.6 |
| 20260905170012 | 31 | 236 | 1.6 | 8.0 | 0.00 | 0.00 | 0.00 | 61 | 1015.8 |
| 20260905164516 | 32 | 123 | 1.6 | 12.9 | 0.00 | 0.00 | 0.00 | 57 | 1015.9 |
| 20260905163018 | 32 | 72 | 1.6 | 12.9 | 0.00 | 0.00 | 0.00 | 58 | 1015.9 |
| 20260905161518 | 32 | 257 | 1.6 | 12.9 | 0.00 | 0.00 | 0.00 | 61 | 1015.9 |
| 20260905160021 | 31 | 200 | 1.6 | 6.4 | 0.00 | 0.00 | 0.00 | 62 | 1015.9 |
| 20260905154519 | 30 | 220 | 1.6 | 11.3 | 0.00 | 0.00 | 0.00 | 68 | 1015.9 |
| 20260905153003 | 29 | 246 | 3.2 | 8.0 | 0.00 | 0.00 | 0.00 | 70 | 1015.9 |
| 20260905151508 | 28 | 269 | 0.0 | 4.8 | 0.00 | 0.00 | 0.00 | 75 | 1016.0 |
| 20260905150008 | 28 | 91 | 1.6 | 6.4 | 0.00 | 0.00 | 0.00 | 76 | 1016.0 |
| 20260905144521 | 28 | 295 | 3.2 | 12.9 | 0.00 | 0.00 | 0.00 | 78 | 1015.9 |
| 20260905143027 | 27 | 265 | 0.0 | 6.4 | 0.00 | 0.00 | 0.00 | 83 | 1016.1 |
| 20260905141504 | 26 | 234 | 0.0 | 9.7 | 0.00 | 0.00 | 0.00 | 85 | 1015.8 |
| 20260905140006 | 26 | 283 | 0.0 | 3.2 | 0.00 | 0.00 | 0.00 | 87 | 1015.6 |
| 20260905134509 | 26 | 255 | 0.0 | 3.2 | 0.00 | 0.00 | 0.00 | 91 | 1015.5 |
| 20260905133018 | 25 | 83 | 0.0 | 4.8 | 0.00 | 0.00 | 0.00 | 92 | 1015.4 |
| 20260905131524 | 24 | 117 | 0.0 | 3.2 | 0.00 | 0.00 | 0.00 | 92 | 1015.2 |
| 20260905130007 | 24 | 121 | 0.0 | 3.2 | 0.00 | 0.00 | 0.00 | 92 | 1015.0 |
| 20260905124520 | 23 | 271 | 0.0 | 0.0 | 0.00 | 0.00 | 0.00 | 92 | 1014.9 |
| 20260905123018 | 23 | 271 | 0.0 | 0.0 | 0.00 | 0.00 | 0.00 | 92 | 1014.7 |
| 20260905121524 | 23 | 271 | 0.0 | 0.0 | 0.00 | 0.00 | 0.00 | 92 | 1014.7 |
| 20260905120031 | 23 | 271 | 0.0 | 0.0 | 0.00 | 0.00 | 0.00 | 92 | 1014.3 |
| 20260905114511 | 23 | 271 | 0.0 | 0.0 | 0.00 | 0.00 | 0.00 | 92 | 1014.4 |
| 20260905113015 | 23 | 271 | 0.0 | 0.0 | 0.00 | 0.00 | 0.00 | 92 | 1014.4 |
| 20260905111522 | 23 | 271 | 0.0 | 0.0 | 0.00 | 0.00 | 0.00 | 91 | 1014.3 |
| 20260905110028 | 24 | 271 | 0.0 | 0.0 | 0.00 | 0.00 | 0.00 | 91 | 1014.2 |
| 20260905104536 | 24 | 271 | 0.0 | 0.0 | 0.00 | 0.00 | 0.00 | 91 | 1014.3 |
| 20260905103011 | 24 | 271 | 0.0 | 0.0 | 0.00 | 0.00 | 0.00 | 91 | 1014.3 |
| 20260905101517 | 24 | 271 | 0.0 | 0.0 | 0.00 | 0.00 | 0.00 | 90 | 1014.4 |
| 20260905100025 | 24 | 271 | 0.0 | 3.2 | 0.00 | 0.00 | 0.00 | 90 | 1014.2 |
| 20260905094527 | 24 | 271 | 0.0 | 0.0 | 0.00 | 0.00 | 0.00 | 89 | 1014.0 |
| 20260905093032 | 25 | 271 | 0.0 | 0.0 | 0.00 | 0.00 | 0.00 | 88 | 1014.1 |
| 20260905091516 | 25 | 271 | 0.0 | 3.2 | 0.00 | 0.00 | 0.00 | 88 | 1014.2 |
| 20260905090023 | 25 | 195 | 0.0 | 3.2 | 0.00 | 0.00 | 0.00 | 87 | 1014.2 |
| 20260905084503 | 25 | 171 | 0.0 | 3.2 | 0.00 | 0.00 | 0.00 | 87 | 1014.2 |
| 20260905083006 | 25 | 209 | 0.0 | 3.2 | 0.00 | 0.00 | 0.00 | 87 | 1014.3 |
| 20260905081514 | 25 | 249 | 0.0 | 3.2 | 0.00 | 0.00 | 0.00 | 86 | 1014.4 |
| 20260905080019 | 25 | 105 | 0.0 | 3.2 | 0.00 | 0.00 | 0.00 | 86 | 1014.5 |
| 20260905074503 | 25 | 242 | 0.0 | 3.2 | 0.00 | 0.00 | 0.00 | 85 | 1014.5 |
| 20260905073007 | 25 | 277 | 0.0 | 3.2 | 0.00 | 0.00 | 0.00 | 84 | 1014.7 |
| 20260905071510 | 25 | 268 | 0.0 | 4.8 | 0.00 | 0.00 | 0.00 | 83 | 1014.7 |
| 20260905070016 | 26 | 170 | 0.0 | 3.2 | 0.00 | 0.00 | 0.00 | 82 | 1014.9 |
| 20260905064526 | 26 | 204 | 0.0 | 3.2 | 0.00 | 0.00 | 0.00 | 81 | 1014.9 |
| 20260905063006 | 26 | 119 | 0.0 | 6.4 | 0.00 | 0.00 | 0.00 | 81 | 1014.9 |